Weather History for Bishop, CA

Change the Weather History Date:

Saturday, June 22, 2013

  Actual Average Record
Temperature  
Mean Temperature 73 °F 73 °F  
Max Temperature 91 °F 94 °F 109 °F (1954)
Min Temperature 54 °F 53 °F 40 °F (1944)
Degree Days  
Heating Degree Days 0 0  
Month to date heating degree days 0 17  
Since 1 June heating degree days 0 17  
Since 1 July heating degree days 3851 4175  
Cooling Degree Days 8 8  
Month to date cooling degree days 218 136  
Year to date cooling degree days 304 204  
Since 1 June cooling degree days 218 136  
Growing Degree Days 22 (Base 50)    
Moisture  
Dew Point 23 °F    
Average Humidity 17    
Maximum Humidity 26    
Minimum Humidity 7    
Precipitation  
Precipitation 0.00 in 0.01 in 0.00 in (2014)
Month to date precipitation T 0.15  
Year to date precipitation 0.47 3.03  
Snow  
Snow 0.00 in 0.00 in - ()
Month to date snowfall 0.0 0.0  
Since 1 June snowfall 0.0 0.0  
Since 1 July snowfall 2.8 6.8  
Snow Depth 0.00 in    
Sea Level Pressure  
Sea Level Pressure 29.79 in    
Wind  
Wind Speed 5 mph (NW)    
Max Wind Speed 15 mph    
Max Gust Speed 24 mph    
Visibility 10 miles    
Events      
T = Trace of Precipitation, MM = Missing Value Source: NWS Daily Summary

Daily Weather History Graph

Daily Weather History Graph

Search for Another Location

Airport:

Trip Planner

Search our weather history database for the weather conditions in past years. The results will help you decide how hot, cold, wet, or windy it might be!

Date:

Astronomy

Jun. 22, 2013 Rise Set
Actual Time 5:33 AM PDT 8:17 PM PDT
Civil Twilight 5:02 AM PDT 8:48 PM PDT
Nautical Twilight 4:23 AM PDT 9:27 PM PDT
Astronomical Twilight 3:39 AM PDT 10:11 PM PDT
Moon 7:38 PM PDT (6/22) 4:49 AM PDT (6/22)
Length of Visible Light 15h 46m
Length of Day
14h 44m
Waxing Gibbous, 99% of the Moon is Illuminated
Jun 22
Waxing Gibbous
Jun 23
Full
Jun 29
Last Quarter
Jul 8
New
Jul 15
First Quarter

Hourly Weather History & Observations

Time (PDT) Temp. Dew Point Humidity Pressure Visibility Wind Dir Wind Speed Gust Speed Precip Events Conditions
12:56 AM 68.0 °F 21.9 °F 17% 29.83 in 10.0 mi North 13.8 mph - N/A   Clear
1:56 AM 64.9 °F 21.0 °F 19% 29.83 in 10.0 mi North 10.4 mph - N/A   Clear
2:56 AM 61.0 °F 21.0 °F 21% 29.84 in 10.0 mi North 8.1 mph - N/A   Clear
3:56 AM 55.9 °F 21.0 °F 26% 29.86 in 10.0 mi North 8.1 mph - N/A   Clear
4:56 AM 55.9 °F 19.9 °F 25% 29.86 in 10.0 mi NW 4.6 mph - N/A   Clear
5:56 AM 55.9 °F 21.0 °F 26% 29.88 in 10.0 mi NW 3.5 mph - N/A   Clear
6:56 AM 62.1 °F 21.9 °F 21% 29.88 in 10.0 mi WNW 6.9 mph - N/A   Clear
7:56 AM 71.1 °F 19.9 °F 14% 29.88 in 10.0 mi NNW 12.7 mph - N/A   Clear
8:56 AM 75.0 °F 19.9 °F 13% 29.88 in 10.0 mi NW 9.2 mph - N/A   Clear
9:56 AM 75.9 °F 21.9 °F 13% 29.88 in 10.0 mi WSW 5.8 mph - N/A   Clear
10:56 AM 79.0 °F 21.0 °F 12% 29.86 in 10.0 mi Variable 3.5 mph - N/A   Clear
11:56 AM 81.0 °F 21.0 °F 11% 29.85 in 10.0 mi Calm Calm - N/A   Clear
12:56 PM 82.9 °F 21.9 °F 11% 29.81 in 10.0 mi Variable 3.5 mph - N/A   Clear
1:56 PM 86.0 °F 19.0 °F 8% 29.78 in 10.0 mi Calm Calm - N/A   Clear
2:56 PM 88.0 °F 21.0 °F 9% 29.76 in 10.0 mi Variable 5.8 mph - N/A   Clear
3:56 PM 90.0 °F 21.0 °F 8% 29.74 in 10.0 mi North 4.6 mph - N/A   Clear
4:56 PM 91.0 °F 19.9 °F 7% 29.70 in 10.0 mi SW 6.9 mph - N/A   Clear
5:56 PM 90.0 °F 19.0 °F 7% 29.69 in 10.0 mi Calm Calm - N/A   Clear
6:56 PM 89.1 °F 19.0 °F 8% 29.68 in 10.0 mi Calm Calm - N/A   Clear
7:56 PM 84.9 °F 23.0 °F 10% 29.67 in 10.0 mi SSE 3.5 mph - N/A   Clear
8:56 PM 79.0 °F 26.1 °F 14% 29.68 in 10.0 mi SSE 6.9 mph - N/A   Clear
9:56 PM 75.0 °F 30.0 °F 19% 29.72 in 10.0 mi North 8.1 mph - N/A   Clear
10:56 PM 73.9 °F 33.1 °F 22% 29.73 in 10.0 mi West 5.8 mph - N/A   Clear
11:56 PM 72.0 °F 32.0 °F 23% 29.73 in 10.0 mi Calm Calm - N/A   Clear